P. B. Shah — WDB8609 — position and weather

sailwx.info

Track history (hours):
 
Tides and Currents Weather Stations Pressure Air Temp Water Temp Dewpoint Dewpoint Depression Visibility Wind Speed Wind Dir Waves Ship Positions

P. B. Shah

Owner: INGRAM BARGE COMPANY, Nashville, TN. More information available from US FCC via Universal Licensing System and Coast Guard Vessel Documentation Center.

Last reported at 2016-Jul-06 08:26 UTC. Time now 2016-Sep-27 20:44 UTC.
Position N 33°13' W 091°06'.
Warning: this ship's position is months out of date.

Length 46 m; draft 3.1 m.

Type: Towing. MMSI: 366961480.

Date/timePositionNaut miles runAvg speedWind from/ knotsBaromVisibWave heightAir tempDewpointWater temp
2016-Jul-06 08:26N 33°13' W 091°06'9 3.8
2016-Jul-06 06:06N 33°05' W 091°10'20 3.6
2016-Jul-06 00:33N 32°45' W 091°09'5 4.1
2016-Jul-05 23:21N 32°44' W 091°03'7 4.0
2016-Jul-05 21:31N 32°38' W 091°09'3 3.6
2016-Jul-05 20:33N 32°35' W 091°08'4 3.7
2016-Jul-05 19:33N 32°31' W 091°06'4 4.5
2016-Jul-05 18:33N 32°27' W 091°05'5 4.7
2016-Jul-05 17:34N 32°25' W 090°60'4 3.7
2016-Jul-05 16:33N 32°21' W 090°60'5 4.7
2016-Jul-05 15:33N 32°20' W 090°54'4 4.3
2016-Jul-05 14:34N 32°17' W 090°57'4 3.5
2016-Jul-05 13:34N 32°14' W 090°59'4 4.4
2016-Jul-05 12:34N 32°09' W 091°00'4 3.6
2016-Jul-05 11:34N 32°08' W 091°04'2 2.4
2016-Jul-05 10:33N 32°06' W 091°06'7 2.1
2016-Jul-05 07:21N 31°60' W 091°06'4 4.8
2016-Jul-05 06:33N 31°59' W 091°10'9 4.5
2016-Jul-05 04:28N 31°51' W 091°17'  
2016-Jun-30 19:32N 31°54' W 091°12'7 7.1
2016-Jun-30 18:29N 31°59' W 091°06'6 6.9
2016-Jun-30 17:33N 32°06' W 091°05'4 3.6
2016-Jun-30 16:34N 32°07' W 091°02'8 8.3
2016-Jun-30 15:34N 32°15' W 090°59'6 6.2
2016-Jun-30 14:34N 32°21' W 090°55'6 6.2
2016-Jun-30 13:33N 32°25' W 091°00'8 7.6
2016-Jun-30 12:33N 32°31' W 091°07'8 8.5
2016-Jun-30 11:33N 32°39' W 091°09'5 3.9
2016-Jun-30 10:10N 32°44' W 091°08'3 4.2
2016-Jun-30 09:33N 32°47' W 091°10'  
Track history (hours):
 
Tides and Currents Weather Stations Pressure Air Temp Water Temp Dewpoint Dewpoint Depression Visibility Wind Speed Wind Dir Waves Ship Positions

P. B. Shah

Owner: INGRAM BARGE COMPANY, Nashville, TN. More information available from US FCC via Universal Licensing System and Coast Guard Vessel Documentation Center.

Last reported at 2016-Jul-06 08:26 UTC. Time now 2016-Sep-27 20:44 UTC.
Position N 33°13' W 091°06'.
Warning: this ship's position is months out of date.

Length 46 m; draft 3.1 m.

Type: Towing. MMSI: 366961480.

Date/timePositionNaut miles runAvg speedWind from/ knotsBaromVisibWave heightAir tempDewpointWater temp
2016-Jul-06 08:26N 33°13' W 091°06'9 3.8
2016-Jul-06 06:06N 33°05' W 091°10'20 3.6
2016-Jul-06 00:33N 32°45' W 091°09'5 4.1
2016-Jul-05 23:21N 32°44' W 091°03'7 4.0
2016-Jul-05 21:31N 32°38' W 091°09'3 3.6
2016-Jul-05 20:33N 32°35' W 091°08'4 3.7
2016-Jul-05 19:33N 32°31' W 091°06'4 4.5
2016-Jul-05 18:33N 32°27' W 091°05'5 4.7
2016-Jul-05 17:34N 32°25' W 090°60'4 3.7
2016-Jul-05 16:33N 32°21' W 090°60'5 4.7
2016-Jul-05 15:33N 32°20' W 090°54'4 4.3
2016-Jul-05 14:34N 32°17' W 090°57'4 3.5
2016-Jul-05 13:34N 32°14' W 090°59'4 4.4
2016-Jul-05 12:34N 32°09' W 091°00'4 3.6
2016-Jul-05 11:34N 32°08' W 091°04'2 2.4
2016-Jul-05 10:33N 32°06' W 091°06'7 2.1
2016-Jul-05 07:21N 31°60' W 091°06'4 4.8
2016-Jul-05 06:33N 31°59' W 091°10'9 4.5
2016-Jul-05 04:28N 31°51' W 091°17'  
2016-Jun-30 19:32N 31°54' W 091°12'7 7.1
2016-Jun-30 18:29N 31°59' W 091°06'6 6.9
2016-Jun-30 17:33N 32°06' W 091°05'4 3.6
2016-Jun-30 16:34N 32°07' W 091°02'8 8.3
2016-Jun-30 15:34N 32°15' W 090°59'6 6.2
2016-Jun-30 14:34N 32°21' W 090°55'6 6.2
2016-Jun-30 13:33N 32°25' W 091°00'8 7.6
2016-Jun-30 12:33N 32°31' W 091°07'8 8.5
2016-Jun-30 11:33N 32°39' W 091°09'5 3.9
2016-Jun-30 10:10N 32°44' W 091°08'3 4.2
2016-Jun-30 09:33N 32°47' W 091°10'  

Dump ship's entire track history